Orbital Elements at Epoch 2459200.5 (2020-Dec-17.0) TDB
Reference: JPL 17 (heliocentric ecliptic J2000)
Element | Value | Uncertainty (1-sigma) | Units |
e | .1575473027229609 | 4.0586e-08 | |
a | 2.531551918014544 | 1.3747e-08 | au |
q | 2.132712741628214 | 1.0181e-07 | au |
i | 9.83734279661191 | 7.8888e-06 | deg |
node | 309.7840351627655 | 5.9531e-05 | deg |
peri | 150.4924308399266 | 0.00010458 | deg |
M | 34.44307115554586 | 8.3875e-05 | deg |
tp | 2459059.740390703284 (2020-Jul-29.24039070) | 0.00034249 | TDB |
period | 1471.22360598958 4.03 | 1.1984e-05 3.281e-08 | d yr |
n | .2446942793293855 | 1.9932e-09 | deg/d |
Q | 2.930391094400873 | 1.5913e-08 | au |
|
| | Orbit Determination Parameters
Additional Information
|